User: anonymous   Login
Location: Unspecified
(0.0000°N, 0.0000°E)
Time: 13:05:41
(UTC+00:00)
Language:

Amsat-Oscar-8 - Orbit

View from above orbital plane
View from above orbital plane
View from above satellite
View from above satellite

Ground track
Ground track

The orbit data is extracted from the following two-line orbital elements,

1 10703U 78026B   21015.84123343 -.00000277  00000-0 -16049-3 0  9992
2 10703  99.0775 333.9912 0006540 323.4737  65.5644 13.99277624187358
Epoch (UTC): 15 January 2021 20:11:22
Eccentricity: 0.0006540
inclination: 99.0775°
perigee height: 891 km
apogee height: 901 km
right ascension of ascending node: 333.9912°
argument of perigee: 323.4737°
revolutions per day: 13.99277624
mean anomaly at epoch: 65.5644°
orbit number at epoch: 18735

The dashed part of the orbit path shows where the satellite is in the earth's shadow,  

DLR